TIANTONG-1 3

Last updated on Thu Nov 21 2024 00:02:44 GMT+0000 (Coordinated Universal Time)

1 47321U 21003A 24325.54100491 -.00000155 00000+0 00000+0 0 9993 2 47321 2.5745 315.4082 0006061 300.1268 80.7549 1.00269539 14214
UTC large
Height (km)
Speed (km/s)
/
Latitude / Longitude
Inclination (degrees)
Orbital Period (minutes)
Azimuth
Elevation
Range (km)
Doppler Factor

Next 0 passes for location: London (51.5072 / 0.1276)

Sorry there are no passes over London.